Location: *
(49.3500°N, 12.6000°E)
Time: 15:25:53
(UTC+00:00)

STARLINK-21 - Pass Details

Date: 18 October 2019
Orbit: 550 x 550 km, 53.0° (Epoch: 19 November)

Event Time Altitude Azimuth Distance (km) Brightness Sun altitude
Rises 16:36:50 0° 245° (WSW) 2,714 9.0 -4.4°
Reaches altitude 10° 16:39:04 10° 245° (WSW) 1,822 7.8 -4.8°
Maximum altitude 16:43:13 89° 153° (SSE) 556 3.7 -5.5°
Drops below altitude 10° 16:47:23 10° 67° (ENE) 1,829 5.7 -6.1°
Enters shadow 16:47:59 - 67° (ENE) 2,072 5.9 -6.2°
